Location: Pianadetto
(44.4000°N, 10.1000°E)
Time: 20:56:46
(UTC+00:00)

Cosmos 2184 Rocket - Pass Details

Date: 26 May 2022
Orbit: 958 x 1003 km, 82.9° (Epoch: 02 July)

Event Time Altitude Azimuth Distance (km) Brightness Sun altitude
Rises 01:35:46 0° 348° (NNW) 3,698 7.7 -17.2°
Reaches altitude 10° 01:38:20 10° 346° (NNW) 2,739 6.9 -16.9°
Maximum altitude 01:44:29 62° 267° (W) 1,085 4.0 -16.3°
Enters shadow 01:48:46 20° 192° (SSW) 2,051 5.2 -15.9°
